EN

Hourly Weather Machhiwara

Today, 27 November, Friday

Time Temperature Precipitation Wind Pressure Humidity
00:00 +16°C° 0 mm 3 mps 744 mmHg 55%
01:00 +14°C° 0 mm 3 mps 743 mmHg 56%
02:00 +14°C° 0 mm 3 mps 743 mmHg 57%
03:00 +14°C° 0 mm 3 mps 743 mmHg 57%
04:00 +13°C° 0 mm 3 mps 743 mmHg 57%
05:00 +13°C° 0 mm 3 mps 743 mmHg 57%
06:00 +14°C° 0 mm 3 mps 743 mmHg 53%
07:00 +16°C° 0 mm 3 mps 743 mmHg 48%
08:00 +16°C° 0 mm 3 mps 743 mmHg 44%
09:00 +19°C° 0 mm 3 mps 743 mmHg 37%
10:00 +22°C° 0 mm 3 mps 743 mmHg 30%
11:00 +25°C° 0 mm 3 mps 743 mmHg 23%
12:00 +26°C° 0 mm 4 mps 743 mmHg 22%
13:00 +27°C° 0 mm 4 mps 742 mmHg 21%
14:00 +28°C° 0 mm 4 mps 741 mmHg 20%
15:00 +26°C° 0 mm 4 mps 741 mmHg 23%
16:00 +23°C° 0 mm 4 mps 741 mmHg 27%
17:00 +21°C° 0 mm 3 mps 741 mmHg 30%
18:00 +20°C° 0 mm 3 mps 741 mmHg 31%
19:00 +19°C° 0 mm 3 mps 742 mmHg 32%
20:00 +18°C° 0 mm 3 mps 742 mmHg 33%
21:00 +18°C° 0 mm 3 mps 742 mmHg 33%
22:00 +17°C° 0 mm 3 mps 742 mmHg 32%
23:00 +17°C° 0 mm 3 mps 742 mmHg 32%

Tomorrow, 28 November, Saturday

Time Temperature Precipitation Wind Pressure Humidity
00:00 +16°C° 0 mm 3 mps 742 mmHg 33%
01:00 +16°C° 0 mm 3 mps 742 mmHg 34%
02:00 +14°C° 0 mm 3 mps 741 mmHg 35%
03:00 +14°C° 0 mm 3 mps 741 mmHg 36%
04:00 +14°C° 0 mm 2 mps 741 mmHg 37%
05:00 +14°C° 0 mm 2 mps 740 mmHg 38%
06:00 +15°C° 0 mm 2 mps 741 mmHg 37%
07:00 +15°C° 0 mm 2 mps 741 mmHg 36%
08:00 +16°C° 0 mm 2 mps 741 mmHg 35%
09:00 +18°C° 0 mm 2 mps 741 mmHg 30%
10:00 +21°C° 0 mm 2 mps 741 mmHg 26%
11:00 +25°C° 0 mm 2 mps 741 mmHg 21%
12:00 +26°C° 0 mm 3 mps 740 mmHg 19%
13:00 +27°C° 0 mm 3 mps 740 mmHg 18%
14:00 +28°C° 0 mm 3 mps 740 mmHg 17%
15:00 +26°C° 0 mm 3 mps 739 mmHg 19%
16:00 +24°C° 0 mm 2 mps 739 mmHg 22%
17:00 +21°C° 0 mm 2 mps 739 mmHg 25%
18:00 +20°C° 0 mm 2 mps 739 mmHg 26%
19:00 +19°C° 0 mm 2 mps 740 mmHg 27%
20:00 +19°C° 0 mm 1 mps 740 mmHg 28%
21:00 +19°C° 0 mm 1 mps 740 mmHg 29%
22:00 +18°C° 0 mm 1 mps 740 mmHg 29%
23:00 +18°C° 0 mm 1 mps 740 mmHg 30%

Day after tomorrow, 29 November, Sunday

Time Temperature Precipitation Wind Pressure Humidity
00:00 +16°C° 0 mm 1 mps 740 mmHg 30%
01:00 +16°C° 0 mm 1 mps 739 mmHg 31%
02:00 +14°C° 0 mm 0 mps 739 mmHg 32%
03:00 +14°C° 0 mm 0 mps 739 mmHg 32%
04:00 +14°C° 0 mm 0 mps 739 mmHg 33%
05:00 +13°C° 0 mm 0 mps 739 mmHg 33%
06:00 +14°C° 0 mm 0 mps 739 mmHg 32%
07:00 +15°C° 0 mm 0 mps 740 mmHg 31%
08:00 +18°C° 0 mm 1 mps 741 mmHg 30%
09:00 +20°C° 0 mm 1 mps 741 mmHg 27%
10:00 +22°C° 0 mm 1 mps 741 mmHg 25%
11:00 +23°C° 0 mm 1 mps 741 mmHg 22%
12:00 +24°C° 0 mm 1 mps 741 mmHg 20%
13:00 +25°C° 0 mm 1 mps 740 mmHg 18%
14:00 +24°C° 0 mm 0 mps 740 mmHg 17%
15:00 +23°C° 0 mm 0 mps 740 mmHg 19%
16:00 +23°C° 0 mm 1 mps 739 mmHg 21%
17:00 +21°C° 0 mm 1 mps 739 mmHg 22%
18:00 +20°C° 0 mm 1 mps 739 mmHg 24%
19:00 +20°C° 0 mm 1 mps 740 mmHg 25%
20:00 +19°C° 0 mm 1 mps 740 mmHg 27%
21:00 +18°C° 0 mm 1 mps 740 mmHg 28%
22:00 +18°C° 0 mm 1 mps 740 mmHg 30%
23:00 +16°C° 0 mm 1 mps 740 mmHg 31%

30 November, Monday

Time Temperature Precipitation Wind Pressure Humidity
00:00 +16°C° 0 mm 1 mps 739 mmHg 32%
01:00 +14°C° 0 mm 0 mps 739 mmHg 33%
02:00 +14°C° 0 mm 0 mps 739 mmHg 34%
03:00 +13°C° 0 mm 0 mps 739 mmHg 34%
04:00 +14°C° 0 mm 1 mps 739 mmHg 35%
05:00 +14°C° 0 mm 1 mps 739 mmHg 36%
06:00 +15°C° 0 mm 1 mps 739 mmHg 35%
07:00 +15°C° 0 mm 1 mps 739 mmHg 34%
08:00 +16°C° 0 mm 1 mps 739 mmHg 33%
09:00 +20°C° 0 mm 1 mps 739 mmHg 29%
10:00 +22°C° 0 mm 1 mps 740 mmHg 25%
11:00 +25°C° 0 mm 1 mps 740 mmHg 21%
12:00 +25°C° 0 mm 1 mps 739 mmHg 20%
13:00 +26°C° 0 mm 2 mps 739 mmHg 19%
14:00 +27°C° 0 mm 2 mps 738 mmHg 17%
15:00 +25°C° 0 mm 2 mps 738 mmHg 20%
16:00 +24°C° 0 mm 2 mps 738 mmHg 22%
17:00 +21°C° 0 mm 2 mps 738 mmHg 24%
18:00 +20°C° 0 mm 2 mps 739 mmHg 25%
19:00 +20°C° 0 mm 1 mps 739 mmHg 27%
20:00 +19°C° 0 mm 1 mps 739 mmHg 28%
21:00 +19°C° 0 mm 1 mps 739 mmHg 29%
22:00 +18°C° 0 mm 1 mps 739 mmHg 29%
23:00 +18°C° 0 mm 1 mps 740 mmHg 30%

1 December, Tuesday

Time Temperature Precipitation Wind Pressure Humidity
00:00 +16°C° 0 mm 1 mps 739 mmHg 31%
01:00 +16°C° 0 mm 1 mps 739 mmHg 32%
02:00 +16°C° 0 mm 1 mps 739 mmHg 32%
03:00 +14°C° 0 mm 0 mps 739 mmHg 33%
04:00 +14°C° 0 mm 0 mps 739 mmHg 34%
05:00 +14°C° 0 mm 0 mps 739 mmHg 34%
06:00 +15°C° 0 mm 0 mps 739 mmHg 34%
07:00 +16°C° 0 mm 0 mps 740 mmHg 33%
08:00 +16°C° 0 mm 0 mps 740 mmHg 33%
09:00 +19°C° 0 mm 0 mps 740 mmHg 28%
10:00 +21°C° 0 mm 0 mps 740 mmHg 24%
11:00 +25°C° 0 mm 1 mps 741 mmHg 20%
12:00 +26°C° 0 mm 1 mps 740 mmHg 18%
13:00 +27°C° 0 mm 1 mps 739 mmHg 17%
14:00 +28°C° 0 mm 2 mps 739 mmHg 15%
15:00 +26°C° 0 mm 2 mps 739 mmHg 17%
16:00 +24°C° 0 mm 2 mps 739 mmHg 19%
17:00 +23°C° 0 mm 2 mps 739 mmHg 21%
18:00 +21°C° 0 mm 2 mps 739 mmHg 22%
19:00 +21°C° 0 mm 1 mps 739 mmHg 23%
20:00 +20°C° 0 mm 1 mps 740 mmHg 24%
21:00 +19°C° 0 mm 1 mps 740 mmHg 25%
22:00 +19°C° 0 mm 1 mps 740 mmHg 26%
23:00 +18°C° 0 mm 1 mps 740 mmHg 27%

2 December, Wednesday

Time Temperature Precipitation Wind Pressure Humidity
00:00 +18°C° 0 mm 1 mps 739 mmHg 27%
01:00 +16°C° 0 mm 1 mps 739 mmHg 28%
02:00 +16°C° 0 mm 2 mps 739 mmHg 28%
03:00 +16°C° 0 mm 2 mps 738 mmHg 29%
04:00 +15°C° 0 mm 2 mps 738 mmHg 29%
05:00 +15°C° 0 mm 2 mps 738 mmHg 30%
06:00 +16°C° 0 mm 2 mps 739 mmHg 29%
07:00 +16°C° 0 mm 2 mps 739 mmHg 29%
08:00 +17°C° 0 mm 2 mps 739 mmHg 28%
09:00 +20°C° 0 mm 2 mps 739 mmHg 24%
10:00 +23°C° 0 mm 2 mps 739 mmHg 21%
11:00 +26°C° 0 mm 3 mps 739 mmHg 17%
12:00 +27°C° 0 mm 3 mps 738 mmHg 16%
13:00 +28°C° 0 mm 4 mps 738 mmHg 16%
14:00 +29°C° 0 mm 4 mps 737 mmHg 15%
15:00 +27°C° 0 mm 3 mps 737 mmHg 18%
16:00 +25°C° 0 mm 3 mps 737 mmHg 20%
17:00 +22°C° 0 mm 3 mps 737 mmHg 23%
18:00 +21°C° 0 mm 2 mps 737 mmHg 25%
19:00 +20°C° 0 mm 2 mps 737 mmHg 26%
20:00 +19°C° 0 mm 2 mps 737 mmHg 27%
21:00 +18°C° 0 mm 2 mps 737 mmHg 28%
22:00 +18°C° 0 mm 2 mps 737 mmHg 29%
23:00 +17°C° 0 mm 2 mps 737 mmHg 29%
Show more